Flag for Germany Weather past 2 weeks in Neuburg an der Donau, Bavaria, Germany

Now
37 °F

Chilly.


Feels Like: 37 °F
Forecast: 36 / 59 °F
Wind: 2 mph from Southwest

Location: Neuburg / Donau

Current Time: Apr 21, 2015 at 5:31:05 AM

Latest Report: Apr 21, 2015 at 4:20 AM


Visibility: N/A

Pressure: 30.33 "Hg

Humidity: 87%

Dew point: 34 °F

Location of Neuburg an der DonauLocation

Historic Weather in Neuburg an der Donau — Graph

°F

Neuburg an der Donau temperature yesterday

Maximum temperature yesterday: 63 °F (at 4:20 PM)
Minimum temperature yesterday: 32 °F (at 5:20 AM)
Average temperature yesterday: 48 °F

Past Weeks' High & Low Weather Summary

 TemperatureHumidityPressure
High73 °F (Apr 15, 4:20 PM)100% (Apr 9, 5:20 AM)30.60 "Hg (Apr 9, 5:20 AM)
Low25 °F (Apr 7, 6:20 AM)22% (Apr 15, 6:20 PM)29.86 "Hg (Apr 17, 5:20 AM)
Average49 °F64%30.24 "Hg
* Reported Apr 6 3:20 AM — Apr 21 3:20 AM, Neuburg an der Donau, Weather by CustomWeather, © 2015

Note: Actual official high and low records may vary slightly from our data, if they occured in-between our weather recording intervals... More about our weather records

Advertising

Neuburg an der Donau weather history for previous 24 hours

 ConditionsComfort  
Time TempWeatherWind HumidityBarometerVisibility
3:20 AM
Tue, Apr 21
36 °FChilly.1 mph87%30.30 "HgN/A
2:20 AM41 °FQuite cool.2 mph81%30.30 "HgN/A
1:20 AM41 °FQuite cool.2 mph76%30.30 "HgN/A
12:20 AM45 °FQuite cool.2 mph71%30.30 "HgN/A
11:20 PM
Mon, Apr 20
45 °FQuite cool.3 mph71%30.30 "HgN/A
10:20 PM50 °FCool.2 mph58%30.27 "HgN/A
9:20 PM50 °FCool.2 mph54%30.27 "HgN/A
8:20 PM55 °FRefreshingly cool.6 mph44%30.24 "HgN/A
7:20 PM61 °FRefreshingly cool.8 mph36%30.21 "HgN/A
6:20 PM63 °FMild.7 mph32%30.21 "HgN/A
5:20 PM63 °FPassing clouds.8 mph34%30.21 "HgN/A
4:20 PM63 °FPassing clouds.8 mph32%30.21 "HgN/A
3:20 PM61 °FPassing clouds.7 mph36%30.21 "HgN/A
2:20 PM59 °FPassing clouds.8 mph34%30.24 "HgN/A
1:20 PM59 °FPassing clouds.2 mph39%30.24 "HgN/A
12:20 PM55 °FPassing clouds.3 mph41%30.24 "HgN/A
11:20 AM54 °FPassing clouds.3 mph47%30.27 "HgN/A
10:20 AM50 °FScattered clouds.2 mph54%30.24 "HgN/A
9:20 AM46 °FScattered clouds.2 mph57%30.24 "HgN/A
8:20 AM39 °FScattered clouds.2 mph81%30.24 "HgN/A
7:20 AM34 °FScattered clouds.No wind87%30.21 "HgN/A
6:20 AM32 °FPassing clouds.No wind87%30.21 "HgN/A
5:20 AM32 °FChilly.No wind93%30.18 "HgN/A
Weather by CustomWeather, © 2015

See weather overviewHow to use our weather pages